| time (UTC) | temp F | wind direction | speed MPH | gust MPH | rain 1hr in | rain 24hr in | rain mn in | humidity % | barometer mb |
| 20260906204604 | 100 | 345 | 3.0 | 9.0 | 0.00 | 0.01 | 0.00 | 44 | 1011.1 |
| 20260906204231 | 100 | 302 | 3.0 | 7.0 | 0.00 | 0.01 | 0.00 | 44 | 1010.9 |
| 20260906203731 | 101 | 94 | 4.0 | 7.0 | 0.00 | 0.01 | 0.00 | 44 | 1011.0 |
| 20260906203230 | 102 | 58 | 4.0 | 12.0 | 0.00 | 0.01 | 0.00 | 43 | 1011.0 |
| 20260906203053 | 102 | 303 | 2.0 | 12.0 | 0.00 | 0.01 | 0.00 | 42 | 1011.4 |
| 20260906202731 | 102 | 312 | 4.0 | 12.0 | 0.00 | 0.01 | 0.00 | 42 | 1011.2 |
| 20260906202231 | 103 | 86 | 4.0 | 8.0 | 0.00 | 0.01 | 0.00 | 41 | 1011.2 |
| 20260906201729 | 105 | 188 | 2.0 | 7.0 | 0.00 | 0.01 | 0.00 | 39 | 1011.2 |
| 20260906201604 | 104 | 161 | 1.0 | 6.0 | 0.00 | 0.01 | 0.00 | 41 | 1011.6 |
| 20260906201229 | 104 | 149 | 3.0 | 7.0 | 0.00 | 0.01 | 0.00 | 40 | 1011.3 |
| 20260906200729 | 104 | 330 | 3.0 | 7.0 | 0.00 | 0.01 | 0.00 | 39 | 1011.3 |
| 20260906200229 | 103 | 82 | 3.0 | 7.0 | 0.00 | 0.01 | 0.00 | 40 | 1011.3 |
| 20260906200057 | 103 | 276 | 3.0 | 7.0 | 0.00 | 0.01 | 0.00 | 40 | 1011.8 |
| 20260906195728 | 103 | 170 | 3.0 | 7.0 | 0.00 | 0.01 | 0.00 | 40 | 1011.6 |
| 20260906195229 | 103 | 221 | 2.0 | 10.0 | 0.00 | 0.01 | 0.00 | 39 | 1011.8 |
| 20260906194729 | 103 | 274 | 4.0 | 10.0 | 0.00 | 0.01 | 0.00 | 41 | 1011.8 |
| 20260906194629 | 102 | 242 | 1.0 | 8.0 | 0.00 | 0.01 | 0.00 | 43 | 1011.9 |
| 20260906194228 | 102 | 221 | 4.0 | 9.0 | 0.00 | 0.01 | 0.00 | 43 | 1011.8 |
| 20260906193729 | 101 | 264 | 5.0 | 8.0 | 0.00 | 0.01 | 0.00 | 43 | 1011.8 |
| 20260906193229 | 102 | 236 | 4.0 | 8.0 | 0.00 | 0.01 | 0.00 | 43 | 1011.9 |
| 20260906193101 | 101 | 20 | 3.0 | 7.0 | 0.00 | 0.01 | 0.00 | 43 | 1012.1 |
| 20260906192729 | 101 | 39 | 3.0 | 8.0 | 0.00 | 0.01 | 0.00 | 43 | 1012.0 |
| 20260906192228 | 100 | 182 | 2.0 | 11.0 | 0.00 | 0.01 | 0.00 | 44 | 1012.1 |
| 20260906191729 | 101 | 301 | 2.0 | 11.0 | 0.00 | 0.01 | 0.00 | 45 | 1012.1 |
| 20260906191608 | 100 | 285 | 5.0 | 11.0 | 0.00 | 0.01 | 0.00 | 45 | 1012.2 |
| 20260906191228 | 101 | 36 | 2.0 | 13.0 | 0.00 | 0.01 | 0.00 | 45 | 1012.2 |
| 20260906190731 | 101 | 237 | 3.0 | 13.0 | 0.00 | 0.01 | 0.00 | 44 | 1012.2 |
| 20260906190230 | 100 | 96 | 5.0 | 13.0 | 0.00 | 0.01 | 0.00 | 46 | 1012.4 |
| 20260906190103 | 100 | 337 | 2.0 | 8.0 | 0.00 | 0.01 | 0.00 | 48 | 1012.7 |
| 20260906185731 | 100 | 115 | 4.0 | 9.0 | 0.00 | 0.01 | 0.00 | 47 | 1012.6 |
| 20260906185230 | 98 | 141 | 5.0 | 9.0 | 0.00 | 0.01 | 0.00 | 48 | 1012.6 |
| 20260906184948 | 98 | 196 | 2.0 | 6.0 | 0.00 | 0.01 | 0.00 | 51 | 1012.8 |
| 20260906184606 | 98 | 217 | 2.0 | 8.0 | 0.00 | 0.01 | 0.00 | 50 | 1013.1 |
| 20260906184228 | 98 | 70 | 3.0 | 9.0 | 0.00 | 0.01 | 0.00 | 50 | 1012.9 |
| 20260906183729 | 99 | 131 | 4.0 | 11.0 | 0.00 | 0.01 | 0.00 | 49 | 1012.9 |
| 20260906183229 | 98 | 323 | 6.0 | 11.0 | 0.00 | 0.01 | 0.00 | 49 | 1012.9 |
| 20260906183104 | 98 | 264 | 2.0 | 9.0 | 0.00 | 0.01 | 0.00 | 49 | 1013.2 |
| 20260906182729 | 99 | 210 | 2.0 | 7.0 | 0.00 | 0.01 | 0.00 | 49 | 1013.0 |
| 20260906182230 | 99 | 234 | 3.0 | 7.0 | 0.00 | 0.01 | 0.00 | 49 | 1013.1 |
| 20260906181730 | 99 | 219 | 3.0 | 7.0 | 0.00 | 0.01 | 0.00 | 50 | 1013.2 |
| 20260906181556 | 99 | 63 | 2.0 | 7.0 | 0.00 | 0.01 | 0.00 | 50 | 1013.5 |
| 20260906181230 | 99 | 153 | 2.0 | 7.0 | 0.00 | 0.01 | 0.00 | 51 | 1013.4 |
| 20260906181000 | 98 | 134 | 2.0 | 8.0 | 0.00 | 0.01 | 0.00 | 53 | 1013.5 |
| 20260906180231 | 98 | 131 | 4.0 | 8.0 | 0.00 | 0.01 | 0.00 | 51 | 1013.5 |
| 20260906180057 | 97 | 161 | 3.0 | 8.0 | 0.00 | 0.01 | 0.00 | 53 | 1013.7 |
| 20260906175953 | 96 | 4 | 3.0 | 8.0 | 0.00 | 0.01 | 0.00 | 54 | 1013.5 |
| 20260906175231 | 96 | 127 | 5.0 | 8.0 | 0.00 | 0.01 | 0.00 | 53 | 1013.7 |
| 20260906174729 | 97 | 144 | 3.0 | 8.0 | 0.00 | 0.01 | 0.00 | 55 | 1013.8 |
| 20260906174559 | 97 | 284 | 3.0 | 8.0 | 0.00 | 0.01 | 0.00 | 54 | 1014.0 |
| 20260906174230 | 97 | 8 | 2.0 | 7.0 | 0.00 | 0.01 | 0.00 | 56 | 1014.0 |
| 20260906174221 | 97 | 267 | 2.0 | 7.0 | 0.00 | 0.01 | 0.00 | 55 | 1014.1 |
| 20260906173453 | 96 | 13 | 4.0 | 7.0 | 0.00 | 0.01 | 0.00 | 56 | 1014.1 |
| 20260906173201 | 96 | 172 | 2.0 | 10.0 | 0.00 | 0.01 | 0.00 | 56 | 1014.3 |
| 20260906172730 | 96 | 212 | 2.0 | 9.0 | 0.00 | 0.01 | 0.00 | 58 | 1014.1 |
| 20260906172230 | 95 | 319 | 5.0 | 9.0 | 0.00 | 0.01 | 0.00 | 57 | 1014.2 |
| 20260906171729 | 95 | 265 | 2.0 | 7.0 | 0.00 | 0.01 | 0.00 | 58 | 1014.5 |
| 20260906171606 | 95 | 256 | 2.0 | 7.0 | 0.00 | 0.01 | 0.00 | 58 | 1014.6 |
| 20260906171229 | 95 | 163 | 2.0 | 7.0 | 0.00 | 0.01 | 0.00 | 59 | 1014.3 |
| 20260906170730 | 95 | 283 | 4.0 | 7.0 | 0.00 | 0.01 | 0.00 | 58 | 1014.3 |
| 20260906170229 | 96 | 290 | 3.0 | 9.0 | 0.00 | 0.01 | 0.00 | 58 | 1014.3 |
| 20260906170152 | 95 | 195 | 3.0 | 10.0 | 0.00 | 0.01 | 0.00 | 58 | 1014.6 |
| 20260906165950 | 95 | 257 | 4.0 | 10.0 | 0.00 | 0.01 | 0.00 | 59 | 1014.4 |
| 20260906165229 | 95 | 223 | 3.0 | 10.0 | 0.00 | 0.01 | 0.00 | 60 | 1014.5 |
| 20260906164739 | 95 | 258 | 3.0 | 9.0 | 0.00 | 0.01 | 0.00 | 58 | 1014.7 |
| 20260906164728 | 95 | 272 | 5.0 | 9.0 | 0.00 | 0.01 | 0.00 | 59 | 1014.5 |
| 20260906164228 | 95 | 119 | 5.0 | 7.0 | 0.00 | 0.01 | 0.00 | 59 | 1014.5 |
| 20260906163949 | 95 | 309 | 3.0 | 6.0 | 0.00 | 0.01 | 0.00 | 61 | 1014.6 |
| 20260906163230 | 94 | 230 | 3.0 | 8.0 | 0.00 | 0.01 | 0.00 | 60 | 1014.6 |
| 20260906163059 | 94 | 83 | 2.0 | 8.0 | 0.00 | 0.01 | 0.00 | 61 | 1014.8 |
| 20260906162950 | 94 | 76 | 3.0 | 8.0 | 0.00 | 0.01 | 0.00 | 61 | 1014.6 |
| 20260906162230 | 93 | 330 | 2.0 | 8.0 | 0.00 | 0.01 | 0.00 | 64 | 1014.7 |
| 20260906161730 | 93 | 153 | 4.0 | 8.0 | 0.00 | 0.01 | 0.00 | 63 | 1014.7 |
| 20260906161602 | 92 | 57 | 3.0 | 8.0 | 0.00 | 0.01 | 0.00 | 63 | 1014.9 |
| 20260906161230 | 93 | 271 | 3.0 | 7.0 | 0.00 | 0.01 | 0.00 | 64 | 1014.8 |
| 20260906160951 | 93 | 189 | 3.0 | 11.0 | 0.00 | 0.01 | 0.00 | 64 | 1014.8 |
| 20260906160230 | 92 | 304 | 4.0 | 11.0 | 0.00 | 0.01 | 0.00 | 65 | 1014.8 |
| 20260906160056 | 91 | 240 | 4.0 | 11.0 | 0.00 | 0.01 | 0.00 | 65 | 1015.0 |
| 20260906155729 | 92 | 302 | 4.0 | 8.0 | 0.00 | 0.01 | 0.00 | 65 | 1014.9 |
| 20260906155229 | 92 | 269 | 4.0 | 8.0 | 0.00 | 0.01 | 0.00 | 66 | 1014.8 |
| 20260906154729 | 91 | 349 | 3.0 | 8.0 | 0.00 | 0.01 | 0.00 | 67 | 1014.7 |
| 20260906154604 | 91 | 236 | 1.0 | 10.0 | 0.00 | 0.01 | 0.00 | 67 | 1015.0 |
| 20260906154228 | 91 | 324 | 4.0 | 10.0 | 0.00 | 0.01 | 0.00 | 68 | 1014.9 |
| 20260906153744 | 90 | 41 | 4.0 | 10.0 | 0.00 | 0.01 | 0.00 | 69 | 1014.6 |
| 20260906153230 | 90 | 273 | 3.0 | 9.0 | 0.00 | 0.01 | 0.00 | 70 | 1014.8 |
| 20260906153125 | 89 | 141 | 3.0 | 11.0 | 0.00 | 0.01 | 0.00 | 71 | 1015.0 |
| 20260906152729 | 90 | 252 | 6.0 | 9.0 | 0.00 | 0.01 | 0.00 | 70 | 1014.7 |
| 20260906152229 | 90 | 210 | 4.0 | 9.0 | 0.00 | 0.01 | 0.00 | 73 | 1014.6 |
| 20260906151729 | 89 | 262 | 4.0 | 7.0 | 0.00 | 0.01 | 0.00 | 73 | 1014.6 |
| 20260906151717 | 89 | 176 | 2.0 | 8.0 | 0.00 | 0.01 | 0.00 | 75 | 1014.5 |
| 20260906151554 | 89 | 207 | 3.0 | 8.0 | 0.00 | 0.01 | 0.00 | 73 | 1014.8 |
| 20260906150731 | 88 | 134 | 4.0 | 8.0 | 0.00 | 0.01 | 0.00 | 75 | 1014.5 |
| 20260906150231 | 88 | 57 | 5.0 | 7.0 | 0.00 | 0.01 | 0.00 | 75 | 1014.4 |
| 20260906150104 | 87 | 236 | 2.0 | 8.0 | 0.00 | 0.01 | 0.00 | 76 | 1014.5 |
| 20260906145731 | 88 | 145 | 3.0 | 7.0 | 0.00 | 0.01 | 0.00 | 76 | 1014.4 |
| 20260906145231 | 87 | 72 | 3.0 | 6.0 | 0.00 | 0.01 | 0.00 | 77 | 1014.3 |
| 20260906144730 | 87 | 105 | 2.0 | 6.0 | 0.00 | 0.01 | 0.00 | 78 | 1014.4 |
| 20260906144622 | 86 | 205 | 2.0 | 6.0 | 0.00 | 0.01 | 0.00 | 79 | 1014.6 |
| 20260906144229 | 86 | 262 | 2.0 | 6.0 | 0.00 | 0.01 | 0.00 | 80 | 1014.5 |
| 20260906143729 | 86 | 63 | 3.0 | 6.0 | 0.00 | 0.01 | 0.00 | 80 | 1014.3 |
| 20260906143229 | 85 | 91 | 3.0 | 6.0 | 0.00 | 0.01 | 0.00 | 82 | 1014.3 |
| 20260906143055 | 85 | 320 | 1.0 | 6.0 | 0.00 | 0.01 | 0.00 | 82 | 1014.6 |
| 20260906142729 | 85 | 281 | 1.0 | 5.0 | 0.00 | 0.01 | 0.00 | 83 | 1014.4 |
| 20260906142209 | 85 | 143 | 2.0 | 6.0 | 0.00 | 0.01 | 0.00 | 83 | 1014.4 |
| 20260906141705 | 85 | 163 | 3.0 | 7.0 | 0.00 | 0.01 | 0.00 | 83 | 1014.3 |
| 20260906141624 | 84 | 203 | 2.0 | 7.0 | 0.00 | 0.01 | 0.00 | 83 | 1014.5 |
| 20260906141204 | 85 | 338 | 2.0 | 7.0 | 0.00 | 0.01 | 0.00 | 83 | 1014.3 |
| 20260906140704 | 84 | 58 | 2.0 | 6.0 | 0.00 | 0.01 | 0.00 | 84 | 1014.2 |
| 20260906140426 | 84 | 27 | 2.0 | 4.0 | 0.00 | 0.01 | 0.00 | 83 | 1014.2 |
| 20260906140321 | 84 | 236 | 1.0 | 4.0 | 0.00 | 0.01 | 0.00 | 83 | 1014.4 |
| 20260906140104 | 84 | 236 | 1.0 | 4.0 | 0.00 | 0.01 | 0.00 | 83 | 1014.4 |
| 20260906135703 | 84 | 208 | 2.0 | 4.0 | 0.00 | 0.01 | 0.00 | 85 | 1014.1 |
| 20260906135200 | 83 | 335 | 2.0 | 4.0 | 0.00 | 0.01 | 0.00 | 85 | 1014.0 |
| 20260906134656 | 83 | 259 | 1.0 | 7.0 | 0.00 | 0.01 | 0.00 | 85 | 1014.0 |
| 20260906134607 | 83 | 30 | 2.0 | 7.0 | 0.00 | 0.01 | 0.00 | 85 | 1014.3 |
| 20260906134151 | 83 | 119 | 4.0 | 7.0 | 0.00 | 0.01 | 0.00 | 85 | 1014.1 |
| 20260906133907 | 83 | 350 | 2.0 | 4.0 | 0.00 | 0.01 | 0.00 | 86 | 1014.1 |
| 20260906133147 | 83 | 85 | 2.0 | 4.0 | 0.00 | 0.01 | 0.00 | 86 | 1014.1 |
| 20260906133053 | 82 | 284 | 1.0 | 3.0 | 0.00 | 0.01 | 0.00 | 86 | 1014.2 |
| 20260906132901 | 82 | 333 | 1.0 | 3.0 | 0.00 | 0.01 | 0.00 | 87 | 1014.1 |
| 20260906132144 | 82 | 232 | 0.0 | 3.0 | 0.00 | 0.01 | 0.00 | 87 | 1014.0 |
| 20260906131632 | 82 | 289 | 1.0 | 3.0 | 0.00 | 0.01 | 0.00 | 87 | 1014.0 |
| 20260906131602 | 82 | 25 | 1.0 | 3.0 | 0.00 | 0.01 | 0.00 | 86 | 1014.1 |
| 20260906131132 | 82 | 180 | 0.0 | 2.0 | 0.00 | 0.01 | 0.00 | 87 | 1013.9 |
| 20260906130900 | 82 | 20 | 1.0 | 2.0 | 0.00 | 0.01 | 0.00 | 87 | 1013.8 |
| 20260906130210 | 81 | 181 | 0.0 | 2.0 | 0.00 | 0.01 | 0.00 | 86 | 1014.0 |
| 20260906130132 | 82 | 249 | 1.0 | 2.0 | 0.00 | 0.01 | 0.00 | 87 | 1013.7 |
| 20260906125621 | 82 | 308 | 0.0 | 2.0 | 0.00 | 0.01 | 0.00 | 87 | 1013.8 |
| 20260906125121 | 81 | 340 | 0.0 | 2.0 | 0.00 | 0.01 | 0.00 | 88 | 1013.7 |
| 20260906124617 | 81 | 232 | 0.0 | 2.0 | 0.00 | 0.01 | 0.00 | 89 | 1013.6 |
| 20260906124602 | 80 | 0 | 0.0 | 1.0 | 0.00 | 0.01 | 0.00 | 88 | 1013.8 |
| 20260906124107 | 80 | 241 | 1.0 | 2.0 | 0.00 | 0.01 | 0.00 | 89 | 1013.5 |
| 20260906123603 | 80 | 252 | 0.0 | 1.0 | 0.00 | 0.01 | 0.00 | 90 | 1013.3 |
| 20260906123104 | 80 | 0 | 0.0 | 2.0 | 0.00 | 0.01 | 0.00 | 89 | 1013.5 |
| 20260906123102 | 80 | 257 | 0.0 | 2.0 | 0.00 | 0.01 | 0.00 | 90 | 1013.3 |
| 20260906122603 | 80 | 318 | 0.0 | 2.0 | 0.00 | 0.01 | 0.00 | 90 | 1013.3 |
| 20260906122102 | 80 | 210 | 0.0 | 2.0 | 0.00 | 0.01 | 0.00 | 90 | 1013.2 |
| 20260906121602 | 80 | 106 | 0.0 | 1.0 | 0.00 | 0.01 | 0.00 | 90 | 1013.3 |
| 20260906121600 | 80 | 0 | 0.0 | 1.0 | 0.00 | 0.01 | 0.00 | 89 | 1013.4 |
| 20260906121102 | 80 | 209 | 0.0 | 1.0 | 0.00 | 0.01 | 0.00 | 89 | 1013.2 |
| 20260906120601 | 80 | 359 | 0.0 | 2.0 | 0.00 | 0.01 | 0.00 | 89 | 1013.2 |
| 20260906120341 | 80 | 4 | 0.0 | 3.0 | 0.00 | 0.01 | 0.00 | 89 | 1013.0 |
| 20260906120101 | 80 | 0 | 0.0 | 3.0 | 0.00 | 0.01 | 0.00 | 89 | 1013.2 |
| 20260906115604 | 80 | 333 | 1.0 | 3.0 | 0.00 | 0.01 | 0.00 | 89 | 1013.0 |
| 20260906115104 | 80 | 285 | 1.0 | 2.0 | 0.00 | 0.01 | 0.00 | 89 | 1012.9 |
| 20260906114605 | 80 | 0 | 1.0 | 3.0 | 0.00 | 0.01 | 0.00 | 89 | 1013.1 |
| 20260906114603 | 80 | 257 | 1.0 | 2.0 | 0.00 | 0.01 | 0.00 | 89 | 1012.9 |
| 20260906114103 | 80 | 45 | 1.0 | 3.0 | 0.00 | 0.01 | 0.00 | 89 | 1012.8 |
| 20260906113603 | 80 | 152 | 1.0 | 3.0 | 0.00 | 0.01 | 0.00 | 89 | 1012.8 |
| 20260906113103 | 80 | 100 | 1.0 | 2.0 | 0.00 | 0.01 | 0.00 | 89 | 1012.7 |
| 20260906113100 | 80 | 262 | 0.0 | 2.0 | 0.00 | 0.01 | 0.00 | 89 | 1012.8 |
| 20260906112604 | 80 | 279 | 0.0 | 2.0 | 0.00 | 0.01 | 0.00 | 89 | 1012.6 |
| 20260906112103 | 80 | 168 | 0.0 | 3.0 | 0.00 | 0.01 | 0.00 | 89 | 1012.5 |
| 20260906111603 | 80 | 233 | 1.0 | 3.0 | 0.00 | 0.01 | 0.00 | 89 | 1012.4 |
| 20260906111600 | 80 | 247 | 0.0 | 3.0 | 0.00 | 0.01 | 0.00 | 88 | 1012.6 |
| 20260906111104 | 80 | 166 | 1.0 | 3.0 | 0.00 | 0.01 | 0.00 | 89 | 1012.4 |
| 20260906110603 | 80 | 305 | 1.0 | 3.0 | 0.00 | 0.01 | 0.00 | 89 | 1012.4 |
| 20260906110115 | 81 | 7 | 1.0 | 4.0 | 0.00 | 0.01 | 0.00 | 88 | 1012.5 |
| 20260906110111 | 81 | 140 | 2.0 | 3.0 | 0.00 | 0.01 | 0.00 | 88 | 1012.4 |
| 20260906110054 | 80 | 0 | 1.0 | 2.0 | 0.00 | 0.01 | 0.00 | 88 | 1012.6 |
| 20260906105103 | 81 | 244 | 1.0 | 4.0 | 0.00 | 0.01 | 0.00 | 88 | 1012.5 |
| 20260906104608 | 80 | 149 | 1.0 | 4.0 | 0.00 | 0.01 | 0.00 | 88 | 1012.6 |
| 20260906104603 | 81 | 30 | 2.0 | 4.0 | 0.00 | 0.01 | 0.00 | 88 | 1012.4 |
| 20260906104103 | 81 | 296 | 1.0 | 4.0 | 0.00 | 0.01 | 0.00 | 88 | 1012.4 |
| 20260906104038 | 81 | 302 | 1.0 | 4.0 | 0.00 | 0.01 | 0.00 | 88 | 1012.4 |
| 20260906103104 | 81 | 86 | 1.0 | 4.0 | 0.00 | 0.01 | 0.00 | 88 | 1012.4 |
| 20260906103056 | 81 | 70 | 1.0 | 3.0 | 0.00 | 0.01 | 0.00 | 87 | 1012.4 |
| 20260906102603 | 81 | 218 | 1.0 | 4.0 | 0.00 | 0.01 | 0.00 | 88 | 1012.3 |
| 20260906102104 | 81 | 68 | 1.0 | 4.0 | 0.00 | 0.01 | 0.00 | 87 | 1012.2 |
| 20260906101604 | 81 | 290 | 2.0 | 4.0 | 0.00 | 0.01 | 0.00 | 87 | 1012.2 |
| 20260906101600 | 81 | 199 | 2.0 | 7.0 | 0.00 | 0.01 | 0.00 | 87 | 1012.4 |
| 20260906101321 | 81 | 79 | 3.0 | 6.0 | 0.00 | 0.01 | 0.00 | 87 | 1012.1 |
| 20260906100603 | 81 | 142 | 2.0 | 6.0 | 0.00 | 0.01 | 0.00 | 87 | 1012.1 |
| 20260906100339 | 81 | 309 | 3.0 | 6.0 | 0.00 | 0.01 | 0.00 | 87 | 1011.9 |
| 20260906100120 | 81 | 332 | 2.0 | 6.0 | 0.00 | 0.01 | 0.00 | 86 | 1012.1 |
| 20260906095603 | 81 | 250 | 2.0 | 6.0 | 0.00 | 0.01 | 0.00 | 87 | 1012.0 |
| 20260906095104 | 81 | 185 | 2.0 | 6.0 | 0.00 | 0.01 | 0.00 | 87 | 1011.9 |
| 20260906094642 | 81 | 219 | 2.0 | 5.0 | 0.00 | 0.01 | 0.00 | 86 | 1012.2 |
| 20260906094604 | 81 | 262 | 3.0 | 6.0 | 0.00 | 0.01 | 0.00 | 87 | 1012.0 |
| 20260906094103 | 81 | 258 | 3.0 | 5.0 | 0.00 | 0.01 | 0.00 | 87 | 1011.9 |
| 20260906093603 | 81 | 172 | 2.0 | 4.0 | 0.00 | 0.01 | 0.00 | 87 | 1012.0 |
| 20260906093105 | 80 | 117 | 2.0 | 5.0 | 0.00 | 0.01 | 0.00 | 86 | 1012.2 |
| 20260906092603 | 81 | 297 | 2.0 | 5.0 | 0.00 | 0.01 | 0.00 | 87 | 1012.0 |
| 20260906092103 | 81 | 32 | 2.0 | 3.0 | 0.00 | 0.01 | 0.00 | 87 | 1012.1 |
| 20260906091603 | 81 | 347 | 2.0 | 4.0 | 0.00 | 0.01 | 0.00 | 87 | 1012.0 |
| 20260906091555 | 80 | 52 | 1.0 | 4.0 | 0.00 | 0.01 | 0.00 | 86 | 1012.2 |
| 20260906091102 | 80 | 181 | 2.0 | 4.0 | 0.00 | 0.01 | 0.00 | 86 | 1012.1 |
| 20260906090602 | 80 | 288 | 2.0 | 4.0 | 0.00 | 0.01 | 0.00 | 86 | 1012.0 |
| 20260906090054 | 80 | 64 | 1.0 | 3.0 | 0.00 | 0.01 | 0.00 | 86 | 1012.2 |
| 20260906085602 | 80 | 235 | 1.0 | 2.0 | 0.00 | 0.01 | 0.00 | 86 | 1012.2 |
| 20260906085544 | 80 | 297 | 1.0 | 2.0 | 0.00 | 0.01 | 0.00 | 86 | 1012.2 |
| 20260906084602 | 80 | 6 | 0.0 | 2.0 | 0.00 | 0.01 | 0.00 | 86 | 1012.2 |
| 20260906084600 | 79 | 326 | 0.0 | 1.0 | 0.00 | 0.01 | 0.00 | 85 | 1012.4 |
| 20260906084101 | 80 | 298 | 1.0 | 2.0 | 0.00 | 0.01 | 0.00 | 86 | 1012.2 |
| 20260906083602 | 79 | 284 | 0.0 | 2.0 | 0.00 | 0.01 | 0.00 | 86 | 1012.3 |
| 20260906083117 | 79 | 323 | 0.0 | 1.0 | 0.00 | 0.01 | 0.00 | 85 | 1012.4 |
| 20260906083056 | 78 | 323 | 0.0 | 1.0 | 0.00 | 0.01 | 0.00 | 85 | 1012.5 |
| 20260906082604 | 79 | 184 | 0.0 | 1.0 | 0.00 | 0.01 | 0.00 | 85 | 1012.3 |
| 20260906082103 | 78 | 231 | 0.0 | 1.0 | 0.00 | 0.01 | 0.00 | 85 | 1012.4 |
| 20260906081603 | 78 | 148 | 0.0 | 1.0 | 0.00 | 0.01 | 0.00 | 86 | 1012.6 |
| 20260906081556 | 78 | 0 | 0.0 | 1.0 | 0.00 | 0.01 | 0.00 | 85 | 1012.8 |
| 20260906081103 | 78 | 74 | 0.0 | 1.0 | 0.00 | 0.01 | 0.00 | 86 | 1012.8 |
| 20260906080603 | 78 | 333 | 0.0 | 0.0 | 0.00 | 0.01 | 0.00 | 87 | 1012.9 |
| 20260906080106 | 77 | 333 | 0.0 | 0.0 | 0.00 | 0.01 | 0.00 | 87 | 1012.9 |
| 20260906075604 | 77 | 333 | 0.0 | 0.0 | 0.00 | 0.01 | 0.00 | 87 | 1013.0 |
| 20260906075104 | 77 | 333 | 0.0 | 1.0 | 0.00 | 0.01 | 0.00 | 87 | 1013.0 |
| 20260906074827 | 77 | 333 | 0.0 | 1.0 | 0.00 | 0.01 | 0.00 | 87 | 1013.0 |
| 20260906074609 | 77 | 0 | 0.0 | 1.0 | 0.00 | 0.01 | 0.00 | 87 | 1013.3 |
| 20260906074102 | 77 | 314 | 0.0 | 1.0 | 0.00 | 0.01 | 0.00 | 87 | 1013.1 |
| 20260906073601 | 77 | 112 | 0.0 | 0.0 | 0.00 | 0.01 | 0.00 | 88 | 1013.2 |
| 20260906073102 | 77 | 112 | 0.0 | 0.0 | 0.00 | 0.01 | 0.00 | 88 | 1013.3 |
| 20260906073058 | 77 | 0 | 0.0 | 0.0 | 0.00 | 0.01 | 0.00 | 87 | 1013.6 |
| 20260906072603 | 77 | 112 | 0.0 | 0.0 | 0.00 | 0.01 | 0.00 | 88 | 1013.4 |
| 20260906072102 | 77 | 112 | 0.0 | 0.0 | 0.00 | 0.01 | 0.00 | 88 | 1013.4 |
| 20260906071825 | 77 | 112 | 0.0 | 0.0 | 0.00 | 0.01 | 0.00 | 87 | 1013.6 |
| 20260906071556 | 77 | 0 | 0.0 | 1.0 | 0.00 | 0.01 | 0.00 | 87 | 1013.7 |
| 20260906071102 | 77 | 112 | 0.0 | 0.0 | 0.00 | 0.01 | 0.00 | 87 | 1013.7 |
| 20260906070602 | 77 | 112 | 0.0 | 0.0 | 0.00 | 0.01 | 0.00 | 88 | 1013.8 |
| 20260906070502 | 77 | 0 | 0.0 | 0.0 | 0.00 | 0.01 | 0.00 | 87 | 1013.9 |
| 20260906070117 | 77 | 112 | 0.0 | 0.0 | 0.00 | 0.01 | 0.00 | 88 | 1013.8 |
| 20260906065603 | 77 | 112 | 0.0 | 0.0 | 0.00 | 0.01 | 0.00 | 88 | 1013.9 |
| 20260906065104 | 77 | 112 | 0.0 | 0.0 | 0.00 | 0.01 | 0.00 | 88 | 1013.8 |
| 20260906064604 | 77 | 112 | 0.0 | 0.0 | 0.00 | 0.01 | 0.00 | 87 | 1013.9 |
| 20260906064556 | 77 | 0 | 0.0 | 0.0 | 0.00 | 0.01 | 0.00 | 87 | 1014.1 |
| 20260906064103 | 77 | 112 | 0.0 | 0.0 | 0.00 | 0.01 | 0.00 | 87 | 1014.1 |
| 20260906063603 | 77 | 112 | 0.0 | 0.0 | 0.00 | 0.01 | 0.00 | 88 | 1014.0 |
| 20260906063104 | 77 | 112 | 0.0 | 1.0 | 0.00 | 0.01 | 0.00 | 88 | 1013.9 |
| 20260906062603 | 77 | 195 | 0.0 | 1.0 | 0.00 | 0.01 | 0.00 | 87 | 1014.0 |
| 20260906062103 | 77 | 340 | 0.0 | 1.0 | 0.00 | 0.01 | 0.00 | 87 | 1014.1 |
| 20260906061831 | 77 | 340 | 0.0 | 1.0 | 0.00 | 0.01 | 0.00 | 87 | 1014.1 |
| 20260906061638 | 77 | 0 | 0.0 | 1.0 | 0.00 | 0.01 | 0.00 | 86 | 1014.3 |
| 20260906061607 | 77 | 0 | 0.0 | 1.0 | 0.00 | 0.01 | 0.00 | 86 | 1014.3 |
| 20260906061103 | 78 | 21 | 0.0 | 2.0 | 0.00 | 0.01 | 0.00 | 87 | 1014.1 |
| 20260906060603 | 77 | 240 | 1.0 | 2.0 | 0.00 | 0.01 | 0.00 | 87 | 1014.1 |
| 20260906060337 | 77 | 221 | 1.0 | 2.0 | 0.00 | 0.01 | 0.00 | 87 | 1014.2 |
| 20260906060106 | 77 | 206 | 1.0 | 2.0 | 0.00 | 0.01 | 0.00 | 87 | 1014.3 |
| 20260906055604 | 78 | 327 | 0.0 | 2.0 | 0.00 | 0.01 | 0.00 | 88 | 1014.0 |
| 20260906055104 | 78 | 242 | 0.0 | 2.0 | 0.00 | 0.01 | 0.00 | 88 | 1013.9 |
| 20260906054604 | 78 | 34 | 0.0 | 2.0 | 0.00 | 0.01 | 0.00 | 88 | 1013.9 |
| 20260906054557 | 77 | 0 | 0.0 | 2.0 | 0.00 | 0.01 | 0.00 | 88 | 1014.1 |
| 20260906054326 | 78 | 129 | 0.0 | 2.0 | 0.00 | 0.01 | 0.00 | 88 | 1013.9 |
| 20260906053602 | 77 | 160 | 1.0 | 2.0 | 0.00 | 0.01 | 0.00 | 88 | 1014.1 |
| 20260906053103 | 77 | 270 | 0.0 | 1.0 | 0.00 | 0.01 | 0.00 | 88 | 1014.3 |
| 20260906053050 | 77 | 0 | 0.0 | 1.0 | 0.00 | 0.01 | 0.00 | 87 | 1014.5 |
| 20260906052602 | 77 | 20 | 0.0 | 1.0 | 0.00 | 0.01 | 0.00 | 88 | 1014.4 |
| 20260906052102 | 77 | 20 | 0.0 | 1.0 | 0.00 | 0.01 | 0.00 | 87 | 1014.7 |
| 20260906051952 | 77 | 239 | 0.0 | 2.0 | 0.00 | 0.01 | 0.00 | 86 | 1014.9 |
| 20260906051603 | 77 | 101 | 0.0 | 2.0 | 0.00 | 0.01 | 0.00 | 87 | 1014.7 |
| 20260906051102 | 78 | 278 | 0.0 | 2.0 | 0.00 | 0.01 | 0.00 | 87 | 1014.6 |
| 20260906050602 | 78 | 328 | 0.0 | 2.0 | 0.00 | 0.01 | 0.00 | 87 | 1014.8 |
| 20260906050116 | 78 | 232 | 0.0 | 2.0 | 0.00 | 0.01 | 0.00 | 87 | 1014.8 |
| 20260906050114 | 77 | 268 | 0.0 | 3.0 | 0.00 | 0.01 | 0.00 | 86 | 1015.0 |
| 20260906045604 | 78 | 73 | 1.0 | 3.0 | 0.00 | 0.01 | 0.01 | 87 | 1014.8 |
| 20260906045103 | 78 | 232 | 2.0 | 3.0 | 0.00 | 0.01 | 0.01 | 87 | 1014.8 |
| 20260906044656 | 77 | 203 | 0.0 | 1.0 | 0.00 | 0.01 | 0.01 | 86 | 1014.8 |
| 20260906044604 | 78 | 86 | 0.0 | 1.0 | 0.00 | 0.01 | 0.01 | 86 | 1014.6 |
| 20260906044306 | 78 | 228 | 0.0 | 1.0 | 0.00 | 0.01 | 0.01 | 86 | 1014.6 |
| 20260906043533 | 78 | 228 | 0.0 | 2.0 | 0.00 | 0.01 | 0.01 | 85 | 1014.6 |
| 20260906043059 | 77 | 0 | 0.0 | 2.0 | 0.00 | 0.01 | 0.01 | 85 | 1014.8 |
| 20260906043032 | 78 | 139 | 0.0 | 2.0 | 0.00 | 0.01 | 0.01 | 85 | 1014.6 |
| 20260906042532 | 78 | 65 | 0.0 | 2.0 | 0.00 | 0.01 | 0.01 | 85 | 1014.5 |
| 20260906042031 | 78 | 65 | 0.0 | 2.0 | 0.00 | 0.01 | 0.01 | 84 | 1014.3 |
| 20260906041553 | 77 | 224 | 0.0 | 2.0 | 0.00 | 0.01 | 0.01 | 84 | 1014.6 |
| 20260906041532 | 78 | 30 | 0.0 | 2.0 | 0.00 | 0.01 | 0.01 | 84 | 1014.5 |
| 20260906041519 | 78 | 333 | 0.0 | 2.0 | 0.00 | 0.01 | 0.01 | 85 | 1014.3 |
| 20260906040754 | 77 | 257 | 0.0 | 2.0 | 0.00 | 0.01 | 0.01 | 85 | 1014.2 |
| 20260906040138 | 77 | 0 | 0.0 | 2.0 | 0.00 | 0.01 | 0.01 | 85 | 1014.4 |
| 20260906040030 | 77 | 10 | 0.0 | 2.0 | 0.00 | 0.01 | 0.01 | 86 | 1014.1 |
| 20260906035530 | 77 | 195 | 1.0 | 3.0 | 0.00 | 0.01 | 0.01 | 86 | 1014.0 |
| 20260906035030 | 77 | 358 | 2.0 | 3.0 | 0.00 | 0.01 | 0.01 | 87 | 1013.8 |
| 20260906035020 | 76 | 226 | 1.0 | 3.0 | 0.00 | 0.01 | 0.01 | 88 | 1013.7 |
| 20260906034606 | 75 | 318 | 1.0 | 3.0 | 0.00 | 0.01 | 0.01 | 88 | 1013.9 |
| 20260906034030 | 75 | 224 | 1.0 | 2.0 | 0.00 | 0.01 | 0.01 | 90 | 1013.8 |
| 20260906033529 | 75 | 32 | 0.0 | 3.0 | 0.00 | 0.01 | 0.01 | 91 | 1013.9 |
| 20260906033100 | 74 | 351 | 1.0 | 4.0 | 0.00 | 0.01 | 0.01 | 91 | 1014.0 |
| 20260906033029 | 75 | 317 | 2.0 | 4.0 | 0.00 | 0.01 | 0.01 | 91 | 1013.8 |
| 20260906032531 | 74 | 358 | 1.0 | 4.0 | 0.01 | 0.01 | 0.01 | 92 | 1013.9 |
| 20260906032030 | 74 | 186 | 2.0 | 3.0 | 0.01 | 0.01 | 0.01 | 92 | 1013.9 |
| 20260906031601 | 73 | 321 | 0.0 | 3.0 | 0.01 | 0.01 | 0.01 | 92 | 1014.2 |
| 20260906031530 | 74 | 225 | 1.0 | 3.0 | 0.01 | 0.01 | 0.01 | 93 | 1014.0 |
| 20260906031030 | 74 | 234 | 0.0 | 2.0 | 0.01 | 0.01 | 0.01 | 93 | 1014.2 |
| 20260906030530 | 74 | 37 | 0.0 | 1.0 | 0.01 | 0.01 | 0.01 | 92 | 1014.3 |
| 20260906030054 | 73 | 52 | 0.0 | 2.0 | 0.01 | 0.01 | 0.01 | 91 | 1014.5 |
| 20260906030030 | 74 | 177 | 0.0 | 2.0 | 0.01 | 0.01 | 0.01 | 91 | 1014.2 |
| 20260906025531 | 74 | 239 | 1.0 | 3.0 | 0.01 | 0.00 | 0.01 | 91 | 1014.3 |
| 20260906025031 | 74 | 283 | 0.0 | 3.0 | 0.01 | 0.00 | 0.01 | 90 | 1014.2 |
| 20260906024603 | 74 | 292 | 1.0 | 5.0 | 0.01 | 0.01 | 0.01 | 89 | 1014.7 |
| 20260906024531 | 74 | 175 | 1.0 | 3.0 | 0.01 | 0.00 | 0.01 | 89 | 1014.5 |
| 20260906024032 | 74 | 315 | 1.0 | 6.0 | 0.01 | 0.00 | 0.01 | 87 | 1014.3 |
| 20260906024012 | 74 | 164 | 3.0 | 7.0 | 0.01 | 0.00 | 0.01 | 85 | 1014.4 |
| 20260906023255 | 75 | 211 | 4.0 | 10.0 | 0.01 | 0.00 | 0.01 | 85 | 1014.5 |
| 20260906023103 | 74 | 340 | 3.0 | 11.0 | 0.01 | 0.01 | 0.01 | 84 | 1014.6 |
| 20260906022530 | 75 | 219 | 4.0 | 10.0 | 0.00 | 0.00 | 0.00 | 85 | 1014.5 |
| 20260906022030 | 76 | 321 | 6.0 | 20.0 | 0.00 | 0.00 | 0.00 | 82 | 1014.5 |
| 20260906021608 | 76 | 270 | 9.0 | 19.0 | 0.00 | 0.00 | 0.00 | 79 | 1015.0 |
| 20260906021530 | 77 | 223 | 9.0 | 20.0 | 0.00 | 0.00 | 0.00 | 80 | 1014.8 |
| 20260906021030 | 78 | 137 | 8.0 | 27.0 | 0.00 | 0.00 | 0.00 | 77 | 1014.7 |
| 20260906020530 | 80 | 131 | 9.0 | 27.0 | 0.00 | 0.00 | 0.00 | 71 | 1014.6 |
| 20260906020106 | 80 | 224 | 9.0 | 19.0 | 0.00 | 0.00 | 0.00 | 71 | 1014.8 |
| 20260906020029 | 81 | 342 | 9.0 | 20.0 | 0.00 | 0.00 | 0.00 | 72 | 1014.6 |
| 20260906015530 | 82 | 73 | 12.0 | 20.0 | 0.00 | 0.00 | 0.00 | 71 | 1014.7 |
| 20260906015030 | 84 | 290 | 9.0 | 21.0 | 0.00 | 0.00 | 0.00 | 70 | 1014.5 |
| 20260906014559 | 87 | 255 | 10.0 | 21.0 | 0.00 | 0.00 | 0.00 | 64 | 1014.6 |
| 20260906014530 | 88 | 156 | 12.0 | 21.0 | 0.00 | 0.00 | 0.00 | 64 | 1014.4 |
| 20260906014030 | 90 | 250 | 4.0 | 8.0 | 0.00 | 0.00 | 0.00 | 67 | 1013.6 |
| 20260906013530 | 90 | 260 | 3.0 | 8.0 | 0.00 | 0.00 | 0.00 | 67 | 1013.3 |
| 20260906013055 | 90 | 271 | 3.0 | 10.0 | 0.00 | 0.00 | 0.00 | 65 | 1013.4 |
| 20260906013030 | 90 | 231 | 4.0 | 8.0 | 0.00 | 0.00 | 0.00 | 66 | 1013.2 |
| 20260906012530 | 91 | 250 | 2.0 | 8.0 | 0.00 | 0.00 | 0.00 | 65 | 1013.0 |
| 20260906012030 | 91 | 321 | 2.0 | 8.0 | 0.00 | 0.00 | 0.00 | 65 | 1012.9 |
| 20260906011557 | 91 | 275 | 4.0 | 8.0 | 0.00 | 0.00 | 0.00 | 64 | 1012.8 |
| 20260906011530 | 91 | 182 | 5.0 | 8.0 | 0.00 | 0.00 | 0.00 | 64 | 1012.6 |
| 20260906011030 | 91 | 82 | 3.0 | 7.0 | 0.00 | 0.00 | 0.00 | 64 | 1012.3 |
| 20260906010530 | 92 | 292 | 3.0 | 9.0 | 0.00 | 0.00 | 0.00 | 63 | 1012.0 |
| 20260906010108 | 91 | 134 | 3.0 | 11.0 | 0.00 | 0.00 | 0.00 | 62 | 1012.2 |
| 20260906010029 | 92 | 215 | 3.0 | 12.0 | 0.00 | 0.00 | 0.00 | 63 | 1012.0 |
| 20260906005752 | 92 | 139 | 3.0 | 12.0 | 0.00 | 0.00 | 0.00 | 62 | 1011.8 |
| 20260906005031 | 92 | 20 | 4.0 | 9.0 | 0.00 | 0.00 | 0.00 | 61 | 1011.8 |
| 20260906004600 | 92 | 130 | 4.0 | 10.0 | 0.00 | 0.00 | 0.00 | 60 | 1011.9 |
| 20260906004530 | 93 | 167 | 4.0 | 9.0 | 0.00 | 0.00 | 0.00 | 60 | 1011.6 |
| 20260906004031 | 93 | 220 | 4.0 | 11.0 | 0.00 | 0.00 | 0.00 | 60 | 1011.4 |
| 20260906003529 | 93 | 265 | 4.0 | 11.0 | 0.00 | 0.00 | 0.00 | 59 | 1011.4 |
| 20260906003100 | 93 | 166 | 4.0 | 10.0 | 0.00 | 0.00 | 0.00 | 58 | 1011.4 |
| 20260906003029 | 93 | 294 | 4.0 | 11.0 | 0.00 | 0.00 | 0.00 | 58 | 1011.1 |
| 20260906002748 | 94 | 307 | 4.0 | 9.0 | 0.00 | 0.00 | 0.00 | 57 | 1010.9 |
| 20260906002030 | 94 | 162 | 4.0 | 9.0 | 0.00 | 0.00 | 0.00 | 58 | 1010.9 |
| 20260906001606 | 94 | 218 | 4.0 | 9.0 | 0.00 | 0.00 | 0.00 | 56 | 1011.2 |
| 20260906001530 | 95 | 313 | 4.0 | 8.0 | 0.00 | 0.00 | 0.00 | 56 | 1010.8 |
| 20260906001030 | 95 | 146 | 4.0 | 11.0 | 0.00 | 0.00 | 0.00 | 55 | 1010.8 |
| 20260906000530 | 95 | 52 | 6.0 | 11.0 | 0.00 | 0.00 | 0.00 | 55 | 1010.5 |
| 20260906000030 | 96 | 236 | 5.0 | 11.0 | 0.00 | 0.00 | 0.00 | 55 | 1010.5 |
| 20260905235530 | 96 | 107 | 5.0 | 10.0 | 0.00 | 0.00 | 0.00 | 54 | 1010.5 |
| 20260905235031 | 97 | 211 | 2.0 | 7.0 | 0.00 | 0.00 | 0.00 | 53 | 1010.3 |
| 20260905234559 | 96 | 60 | 4.0 | 9.0 | 0.00 | 0.00 | 0.00 | 51 | 1010.4 |
| 20260905234532 | 97 | 89 | 4.0 | 9.0 | 0.00 | 0.00 | 0.00 | 52 | 1009.9 |
| 20260905234031 | 97 | 226 | 5.0 | 9.0 | 0.00 | 0.00 | 0.00 | 51 | 1009.9 |
| 20260905233530 | 97 | 220 | 3.0 | 11.0 | 0.00 | 0.00 | 0.00 | 50 | 1009.7 |
| 20260905233108 | 97 | 344 | 4.0 | 12.0 | 0.00 | 0.00 | 0.00 | 49 | 1010.0 |
| 20260905233030 | 97 | 326 | 4.0 | 13.0 | 0.00 | 0.00 | 0.00 | 50 | 1009.7 |
| 20260905232531 | 97 | 130 | 5.0 | 13.0 | 0.00 | 0.00 | 0.00 | 49 | 1009.7 |
| 20260905232030 | 98 | 335 | 5.0 | 11.0 | 0.00 | 0.00 | 0.00 | 49 | 1009.8 |
| 20260905231554 | 98 | 61 | 6.0 | 12.0 | 0.00 | 0.00 | 0.00 | 48 | 1010.0 |
| 20260905231530 | 98 | 342 | 6.0 | 11.0 | 0.00 | 0.00 | 0.00 | 48 | 1009.7 |
| 20260905231030 | 99 | 264 | 4.0 | 10.0 | 0.00 | 0.00 | 0.00 | 49 | 1009.6 |
| 20260905230530 | 99 | 164 | 5.0 | 10.0 | 0.00 | 0.00 | 0.00 | 47 | 1009.7 |
| 20260905230108 | 99 | 312 | 3.0 | 11.0 | 0.00 | 0.00 | 0.00 | 47 | 1010.1 |
| 20260905230030 | 100 | 37 | 3.0 | 11.0 | 0.00 | 0.00 | 0.00 | 47 | 1009.7 |
| 20260905225530 | 100 | 293 | 5.0 | 11.0 | 0.00 | 0.00 | 0.00 | 46 | 1009.8 |
| 20260905225030 | 100 | 143 | 5.0 | 9.0 | 0.00 | 0.00 | 0.00 | 46 | 1009.7 |
| 20260905224601 | 100 | 77 | 4.0 | 12.0 | 0.00 | 0.00 | 0.00 | 45 | 1009.9 |
| 20260905224530 | 101 | 201 | 5.0 | 12.0 | 0.00 | 0.00 | 0.00 | 46 | 1009.6 |
| 20260905224030 | 101 | 16 | 3.0 | 12.0 | 0.00 | 0.00 | 0.00 | 45 | 1009.5 |
| 20260905223530 | 101 | 155 | 5.0 | 12.0 | 0.00 | 0.00 | 0.00 | 43 | 1009.3 |
| 20260905223054 | 101 | 320 | 4.0 | 11.0 | 0.00 | 0.00 | 0.00 | 42 | 1009.7 |
| 20260905223027 | 101 | 119 | 5.0 | 11.0 | 0.00 | 0.00 | 0.00 | 43 | 1009.4 |
| 20260905222748 | 102 | 316 | 3.0 | 10.0 | 0.00 | 0.00 | 0.00 | 43 | 1009.4 |
| 20260905222018 | 101 | 66 | 4.0 | 13.0 | 0.00 | 0.00 | 0.00 | 42 | 1009.3 |
| 20260905221603 | 101 | 186 | 5.0 | 12.0 | 0.00 | 0.00 | 0.00 | 41 | 1009.4 |
| 20260905221513 | 101 | 117 | 5.0 | 13.0 | 0.00 | 0.00 | 0.00 | 42 | 1009.2 |
| 20260905221010 | 102 | 233 | 4.0 | 10.0 | 0.00 | 0.00 | 0.00 | 42 | 1009.0 |
| 20260905220505 | 102 | 82 | 3.0 | 7.0 | 0.00 | 0.00 | 0.00 | 42 | 1009.1 |
| 20260905220450 | 102 | 134 | 3.0 | 8.0 | 0.00 | 0.00 | 0.00 | 43 | 1009.1 |
| 20260905220104 | 102 | 259 | 2.0 | 9.0 | 0.00 | 0.00 | 0.00 | 42 | 1009.4 |
| 20260905215505 | 102 | 293 | 4.0 | 10.0 | 0.00 | 0.00 | 0.00 | 43 | 1009.1 |
| 20260905215003 | 102 | 122 | 3.0 | 10.0 | 0.00 | 0.00 | 0.00 | 42 | 1009.2 |
| 20260905214604 | 102 | 329 | 2.0 | 9.0 | 0.00 | 0.00 | 0.00 | 42 | 1009.6 |
| 20260905214504 | 102 | 34 | 3.0 | 9.0 | 0.00 | 0.00 | 0.00 | 43 | 1009.3 |
| 20260905214003 | 102 | 265 | 3.0 | 11.0 | 0.00 | 0.00 | 0.00 | 42 | 1009.3 |
| 20260905213504 | 102 | 82 | 6.0 | 11.0 | 0.00 | 0.00 | 0.00 | 41 | 1009.4 |
| 20260905213110 | 102 | 27 | 6.0 | 12.0 | 0.00 | 0.00 | 0.00 | 40 | 1009.7 |
| 20260905213003 | 103 | 111 | 7.0 | 11.0 | 0.00 | 0.00 | 0.00 | 40 | 1009.5 |
| 20260905212503 | 103 | 14 | 3.0 | 11.0 | 0.00 | 0.00 | 0.00 | 41 | 1009.5 |
| 20260905212003 | 103 | 231 | 5.0 | 10.0 | 0.00 | 0.00 | 0.00 | 40 | 1009.6 |
| 20260905211734 | 103 | 44 | 2.0 | 7.0 | 0.00 | 0.00 | 0.00 | 40 | 1009.7 |
| 20260905211555 | 103 | 148 | 3.0 | 8.0 | 0.00 | 0.00 | 0.00 | 39 | 1009.9 |
| 20260905211003 | 103 | 200 | 4.0 | 10.0 | 0.00 | 0.00 | 0.00 | 40 | 1009.9 |
| 20260905210503 | 102 | 126 | 5.0 | 10.0 | 0.00 | 0.00 | 0.00 | 40 | 1009.8 |
| 20260905210110 | 102 | 351 | 3.0 | 9.0 | 0.00 | 0.00 | 0.00 | 39 | 1010.2 |
| 20260905210004 | 102 | 136 | 3.0 | 9.0 | 0.00 | 0.00 | 0.00 | 40 | 1010.0 |
| 20260905205727 | 102 | 46 | 5.0 | 9.0 | 0.00 | 0.00 | 0.00 | 41 | 1010.2 |
| 20260905205004 | 102 | 131 | 3.0 | 8.0 | 0.00 | 0.00 | 0.00 | 40 | 1010.0 |